Regional Weather Roundup
Issued by NWS Midland/Odessa, TX

Skip options and go directly to product.
Home | Oldest Version | Previous Version | Current Version | All | Graphics & Text | Save Text | Print | Product List | Glossary On

Skip product version selection by date and time.   
171
ASUS44 KMAF 071510
RWRMAF
MIDLAND AREA WEATHER ROUNDUP
NATIONAL WEATHER SERVICE MIDLAND TX
1000 AM CDT TUE JUL 07 2015

...IN SOUTHWEST TEXAS AND SOUTHEAST NEW MEXICO...

CITY           SKY/WX    TMP DP  RH WIND       PRES   REMARKS
ALPINE         PTSUNNY   74  64  69 E6        30.20S
ANDREWS        CLOUDY    72  70  93 N10       30.06R
ARTESIA        CLOUDY    68  68 100 N13       30.15S
BIG SPRING     CLOUDY    74  71  90 CALM      30.04R
CARLSBAD       CLOUDY    73  66  78 N15       30.10S
DRYDEN           N/A     75  72  90 SW14G21   29.98F
FORT STOCKTON  CLOUDY    73  68  84 W12       30.06R
GUAD PASS      CLOUDY    66  63  90 E15       30.21R
HOBBS          CLOUDY    68  68 100 N13       30.11R FOG
MARFA          MOSUNNY  N/A N/A N/A E7        30.18S
MIDLAND AIRPK  CLOUDY    76  70  79 N6        30.03S
MIDLAND INTL   PTSUNNY   77  68  73 W6        30.02S
ODESSA         CLOUDY    77  68  73 N5        30.04R
PECOS          PTSUNNY   78  68  72 NW13G18   30.04R
PRESIDIO       FAIR      83  65  54 MISG      30.04R
SEMINOLE       CLOUDY    72  69  90 N6        30.09R
SNYDER         RAIN      68  67  98 E5        30.03R
WINK           MOSUNNY   80  69  69 N13       30.02R
$$
...OTHER STATIONS IN TEXAS...

CITY           SKY/WX    TMP DP  RH WIND       PRES   REMARKS
ABILENE        LGT RAIN  69  68  96 S5        29.99R
AMARILLO       LGT RAIN  62  59  90 N15       30.16R FOG
AUSTIN         PTSUNNY   83  74  74 S17       30.00S
BROWNSVILLE    PTSUNNY   85  76  74 SE24G31   30.01R
CORPUS CHRISTI CLOUDY    88  76  67 S25G32    29.99F
DALLAS FTW     CLOUDY    84  73  69 S15       29.98S
DEL RIO        CLOUDY    79  71  76 E13       29.96S
EL PASO        MOSUNNY   80  61  52 NE7       30.11R
HOUSTON INT    PTSUNNY   86  76  71 S9G20     30.03S
LUBBOCK        CLOUDY    69  66  90 N15       30.08R
SAN ANGELO     LGT RAIN  77  72  84 S12       30.00R
SAN ANTONIO    CLOUDY    83  72  69 S18       30.01R
WACO           CLOUDY    84  72  67 S20G31    30.00R
WICHITA FALLS  NOT AVBL
$$
...OTHER LOCATIONS IN NEW MEXICO...

CITY           SKY/WX    TMP DP  RH WIND       PRES   REMARKS
ALAMAGORDO     SUNNY     75  59  57 S14       30.13S
ALBUQUERQUE    MOSUNNY   67  57  70 E9        30.24S
CANNON AFB     DRIZZLE   62  60  94 NE16      30.20R
CLOVIS         CLOUDY    63  59  88 N16G23      N/A
HOLLOMAN AFB   MOSUNNY   76  61  59 SE12      30.11R
ROSWELL        CLOUDY    69  63  81 N9        30.15S
RUIDOSO        FOG       57  57 100 S7        30.33F VSB 3/4
SANTA FE       CLOUDY    60  55  83 SW12      30.28R
TRUTH OR CONSE MOSUNNY   70  60  70 N15       30.18S
TUCUMCARI      CLOUDY    66  56  70 NE12      30.21R HAZE
$$

USA.gov is the U.S. government's official web portal to all federal, state and local government web resources and services.